GFSFLT1_prec_pwat_060.txt.gz
Precipitable_Water
1.49 1.27 1.28 1.28 1.27 1.24 1.19 1.13 1.13 1.22 1.31 1.21 1.17 1.17 1.05 1.17 1.24 1.18 1.31 1.48 1.37 1.58 1.41 1.57 1.64 1.62 1.57 1.42 1.64 1.58 1.75 1.57 1.53
1.43 1.50 1.42 1.38 1.33 1.31 1.30 1.26 1.18 1.13 1.20 1.31 1.31 1.14 1.13 1.02 1.13 1.13 1.19 1.32 1.42 1.39 1.41 1.55 1.61 1.62 1.58 1.46 1.45 1.56 1.56 1.50 1.60
1.09 1.27 1.49 1.74 1.41 1.35 1.39 1.39 1.37 1.32 1.24 1.24 1.37 1.40 1.29 1.12 1.02 1.07 1.08 1.18 1.26 1.35 1.34 1.39 1.75 1.60 1.50 1.37 1.37 1.41 1.51 1.43 1.49
0.94 1.22 1.62 1.79 1.80 1.49 1.42 1.48 1.47 1.40 1.35 1.32 1.31 1.41 1.40 1.30 1.18 1.09 1.03 1.11 1.11 1.29 1.34 1.42 1.42 1.56 1.48 1.38 1.27 1.36 1.37 1.33 1.51
1.00 1.16 1.41 1.57 1.62 1.58 1.46 1.40 1.46 1.51 1.48 1.39 1.41 1.35 1.39 1.38 1.33 1.24 1.12 1.00 1.16 1.25 1.28 1.39 1.40 1.39 1.43 1.31 1.29 1.27 1.26 1.27 1.29
0.81 1.10 1.20 1.26 1.12 1.56 1.44 1.38 1.42 1.46 1.59 1.55 1.56 1.51 1.38 1.36 1.36 1.33 1.20 1.11 1.06 1.22 1.24 1.32 1.33 1.33 1.24 1.29 1.26 1.22 1.19 1.24 1.25
0.53 0.95 1.07 1.04 1.27 1.81 1.51 1.36 1.41 1.42 1.54 1.63 1.65 1.65 1.46 1.29 1.26 1.28 1.28 1.25 1.11 1.25 1.26 1.18 1.26 1.27 1.30 1.29 1.28 1.22 1.17 1.23 1.27
0.55 0.57 0.73 0.80 0.94 1.31 1.67 1.35 1.42 1.45 1.52 1.61 1.64 1.66 1.54 1.38 1.34 1.30 1.34 1.32 1.27 1.16 1.21 1.23 1.24 1.23 1.27 1.32 1.32 1.25 1.19 1.19 1.25
0.87 0.68 0.79 0.87 0.98 1.07 1.33 1.91 1.54 1.49 1.49 1.52 1.63 1.61 1.56 1.56 1.54 1.48 1.33 1.30 1.32 1.34 1.26 1.21 1.23 1.22 1.22 1.25 1.29 1.27 1.27 1.24 1.20
1.08 1.07 0.99 1.08 1.10 1.24 1.55 1.53 2.02 1.55 1.55 1.60 1.58 1.56 1.61 1.58 1.55 1.51 1.47 1.41 1.31 1.37 1.36 1.37 1.24 1.19 1.20 1.20 1.25 1.27 1.27 1.26 1.25
1.10 1.32 1.27 1.23 1.24 1.30 1.54 1.43 1.66 1.88 1.63 1.58 1.56 1.56 1.60 1.64 1.59 1.53 1.52 1.50 1.41 1.33 1.41 1.37 1.33 1.25 1.19 1.17 1.20 1.25 1.24 1.26 1.27
1.23 1.42 1.37 1.38 1.34 1.31 1.41 1.44 1.58 1.70 1.63 1.51 1.52 1.50 1.53 1.62 1.61 1.60 1.52 1.44 1.41 1.43 1.37 1.35 1.31 1.29 1.21 1.15 1.16 1.24 1.24 1.25 1.22
1.15 1.24 1.39 1.33 1.30 1.26 1.23 1.19 1.42 1.49 1.46 1.59 1.45 1.44 1.48 1.60 1.70 1.66 1.61 1.53 1.49 1.47 1.43 1.33 1.32 1.25 1.27 1.28 1.22 1.28 1.28 1.27 1.24
1.08 1.14 1.37 1.35 1.22 1.14 1.15 1.28 1.22 1.10 1.37 1.32 1.51 1.57 1.53 1.61 1.68 1.68 1.74 1.76 1.67 1.60 1.50 1.43 1.38 1.33 1.35 1.38 1.34 1.31 1.33 1.29 1.25
1.10 1.17 1.27 1.32 1.19 1.22 1.40 1.59 1.54 1.22 1.07 1.26 1.42 1.67 1.58 1.55 1.64 1.75 1.83 1.79 1.80 1.72 1.63 1.51 1.41 1.36 1.36 1.42 1.44 1.42 1.39 1.32 1.30
1.09 1.18 1.26 1.32 1.26 1.22 1.23 1.32 1.44 1.39 1.31 1.26 1.28 1.44 1.54 1.49 1.62 1.68 1.75 1.79 1.79 1.76 1.74 1.65 1.54 1.43 1.40 1.41 1.50 1.53 1.46 1.39 1.40
0.95 1.01 1.08 1.19 1.21 1.13 1.09 1.25 1.35 1.41 1.45 1.46 1.37 1.27 1.52 1.57 1.52 1.59 1.67 1.78 1.85 1.83 1.76 1.69 1.62 1.49 1.44 1.48 1.54 1.55 1.55 1.45 1.38
0.90 0.98 1.02 1.10 1.11 1.11 1.11 1.25 1.38 1.46 1.43 1.48 1.32 1.30 1.49 1.59 1.59 1.57 1.62 1.68 1.85 1.85 1.88 1.80 1.64 1.51 1.47 1.47 1.40 1.42 1.53 1.49 1.26
0.89 0.88 0.99 0.97 1.00 1.09 1.27 1.33 1.40 1.51 1.54 1.53 1.54 1.54 1.54 1.61 1.59 1.58 1.62 1.61 1.78 1.98 1.98 1.92 1.82 1.58 1.59 1.48 1.42 1.39 1.34 1.33 1.40
0.92 0.90 0.95 1.03 1.06 1.16 1.35 1.40 1.40 1.52 1.63 1.63 1.57 1.56 1.67 1.70 1.68 1.65 1.63 1.64 1.67 1.72 1.85 1.91 1.66 1.51 1.57 1.54 1.46 1.41 1.50 1.63 1.73

GFSFLT1_prec_pwat_063.txt.gz
Precipitable_Water
1.37 1.41 1.38 1.30 1.19 1.25 1.25 1.24 1.24 1.26 1.20 1.12 1.07 1.05 1.10 1.17 1.21 1.20 1.29 1.41 1.42 1.47 1.47 1.35 1.49 1.53 1.61 1.52 1.50 1.58 1.61 1.56 1.44
1.27 1.40 1.43 1.43 1.43 1.34 1.35 1.32 1.23 1.22 1.28 1.22 1.15 1.00 1.00 1.11 1.18 1.16 1.19 1.33 1.47 1.50 1.54 1.43 1.48 1.51 1.49 1.48 1.43 1.40 1.44 1.49 1.48
1.09 1.34 1.41 1.58 1.60 1.60 1.55 1.46 1.39 1.34 1.32 1.31 1.30 1.19 1.02 0.98 1.09 1.13 1.18 1.27 1.32 1.39 1.42 1.48 1.49 1.53 1.47 1.44 1.40 1.29 1.37 1.38 1.49
1.01 1.12 1.13 1.34 1.72 1.68 1.62 1.62 1.61 1.48 1.37 1.27 1.34 1.36 1.25 1.01 0.98 1.09 1.09 1.17 1.21 1.32 1.32 1.42 1.41 1.54 1.52 1.46 1.38 1.27 1.26 1.30 1.32
1.05 1.15 1.17 1.30 1.35 1.56 1.60 1.60 1.55 1.55 1.47 1.35 1.24 1.31 1.36 1.29 1.05 0.99 1.03 0.97 1.12 1.20 1.23 1.31 1.49 1.45 1.48 1.46 1.39 1.31 1.19 1.19 1.23
1.23 1.19 1.24 1.32 1.35 1.29 1.61 1.54 1.49 1.56 1.55 1.51 1.49 1.36 1.28 1.34 1.34 1.09 0.96 0.96 0.94 1.07 1.11 1.17 1.34 1.52 1.43 1.39 1.34 1.25 1.18 1.18 1.16
1.15 1.14 1.08 1.21 1.31 1.07 1.17 1.39 1.44 1.51 1.64 1.66 1.70 1.56 1.46 1.31 1.26 1.30 1.17 1.05 0.98 1.01 1.00 1.09 1.15 1.29 1.33 1.30 1.26 1.24 1.18 1.17 1.13
1.06 1.20 1.28 1.20 1.14 1.25 1.28 1.22 1.53 1.53 1.64 1.68 1.73 1.74 1.63 1.49 1.39 1.31 1.37 1.29 1.15 1.03 1.10 1.04 1.14 1.14 1.28 1.27 1.25 1.22 1.17 1.17 1.17
0.92 1.15 1.27 1.45 1.47 1.46 1.39 1.43 1.46 1.53 1.64 1.70 1.70 1.73 1.76 1.77 1.58 1.40 1.24 1.29 1.30 1.22 1.07 1.14 1.07 1.12 1.13 1.20 1.23 1.21 1.20 1.18 1.18
0.96 1.02 1.34 1.67 1.67 1.63 1.59 1.45 1.43 1.50 1.83 1.91 1.76 1.66 1.76 1.80 1.73 1.55 1.40 1.30 1.27 1.25 1.23 1.19 1.20 1.16 1.15 1.11 1.16 1.20 1.17 1.17 1.18
0.93 1.01 1.07 1.31 1.46 1.63 1.66 1.81 1.89 1.79 2.08 1.86 1.88 1.80 1.72 1.74 1.73 1.69 1.63 1.49 1.36 1.28 1.26 1.24 1.19 1.24 1.24 1.16 1.14 1.20 1.21 1.19 1.20
0.96 1.02 1.09 1.17 1.35 1.44 1.55 1.64 1.82 1.87 1.79 1.66 1.94 1.74 1.76 1.74 1.70 1.68 1.69 1.60 1.48 1.43 1.36 1.24 1.21 1.28 1.27 1.24 1.22 1.25 1.26 1.25 1.21
0.97 1.06 1.12 1.14 1.23 1.42 1.44 1.53 1.76 1.62 1.44 1.46 1.64 1.72 1.76 1.77 1.72 1.72 1.67 1.70 1.57 1.58 1.50 1.40 1.38 1.26 1.32 1.32 1.27 1.32 1.29 1.27 1.21
1.00 1.09 1.13 1.20 1.32 1.34 1.43 1.59 1.75 1.63 1.66 1.39 1.73 1.84 1.88 1.88 1.78 1.69 1.68 1.73 1.77 1.65 1.60 1.53 1.45 1.37 1.33 1.34 1.35 1.31 1.29 1.28 1.27
0.88 1.02 1.14 1.16 1.24 1.28 1.32 1.52 1.51 1.56 1.91 1.96 1.88 1.80 1.90 1.85 1.86 1.80 1.73 1.67 1.73 1.75 1.70 1.59 1.50 1.41 1.36 1.38 1.36 1.34 1.32 1.31 1.34
0.82 0.95 1.09 1.16 1.22 1.26 1.27 1.33 1.46 1.24 1.38 1.48 1.64 1.71 1.64 1.80 1.86 1.85 1.76 1.69 1.69 1.70 1.74 1.65 1.59 1.48 1.38 1.28 1.34 1.37 1.36 1.32 1.32
0.73 0.88 0.97 1.13 1.19 1.18 1.15 1.20 1.28 1.30 1.25 1.33 1.34 1.29 1.46 1.54 1.67 1.75 1.73 1.74 1.74 1.70 1.65 1.63 1.61 1.59 1.50 1.50 1.37 1.35 1.40 1.39 1.42
0.71 0.84 0.95 1.01 1.04 1.17 1.12 1.09 1.18 1.27 1.19 1.31 1.29 1.29 1.44 1.46 1.50 1.64 1.67 1.67 1.69 1.66 1.71 1.69 1.65 1.64 1.68 1.61 1.46 1.37 1.48 1.48 1.48
0.77 0.89 0.93 0.90 0.91 1.02 1.13 1.11 1.14 1.23 1.25 1.32 1.26 1.27 1.41 1.49 1.48 1.55 1.65 1.65 1.61 1.77 1.81 1.84 1.84 1.92 1.88 1.84 1.77 1.65 1.64 1.60 1.53
0.83 0.89 0.88 0.84 0.86 0.90 1.10 1.15 1.14 1.21 1.28 1.35 1.37 1.31 1.43 1.48 1.59 1.61 1.64 1.68 1.59 1.47 1.69 1.77 1.86 1.99 2.04 2.01 1.89 1.66 1.63 1.53 1.39

GFSFLT1_prec_pwat_069.txt.gz
Precipitable_Water
1.38 1.37 1.39 1.40 1.28 1.21 1.22 1.23 1.27 1.33 1.32 1.23 1.27 1.24 1.17 1.16 1.19 1.40 1.47 1.55 1.54 1.50 1.49 1.60 1.65 1.60 1.57 1.58 1.58 1.58 1.62 1.47 1.37
1.11 1.29 1.30 1.43 1.40 1.27 1.23 1.26 1.25 1.28 1.32 1.30 1.27 1.22 1.22 1.15 1.13 1.28 1.43 1.52 1.54 1.51 1.59 1.69 1.63 1.65 1.56 1.58 1.58 1.52 1.52 1.50 1.38
0.95 1.19 1.34 1.42 1.46 1.47 1.23 1.24 1.27 1.26 1.34 1.33 1.31 1.26 1.20 1.13 1.09 1.15 1.29 1.47 1.45 1.51 1.58 1.64 1.55 1.58 1.61 1.58 1.61 1.65 1.48 1.52 1.49
0.82 0.94 1.27 1.39 1.44 1.54 1.37 1.33 1.36 1.34 1.31 1.30 1.34 1.36 1.27 1.14 1.09 1.07 1.17 1.28 1.37 1.45 1.55 1.52 1.52 1.53 1.52 1.52 1.52 1.60 1.53 1.42 1.44
0.77 0.80 1.08 1.32 1.51 1.61 1.60 1.49 1.52 1.46 1.39 1.41 1.38 1.41 1.37 1.25 1.17 1.09 1.02 1.09 1.25 1.38 1.37 1.49 1.56 1.52 1.49 1.53 1.53 1.53 1.47 1.39 1.34
0.89 0.92 1.06 1.24 1.49 1.63 1.67 1.67 1.62 1.63 1.58 1.57 1.52 1.45 1.40 1.35 1.29 1.19 1.06 0.98 1.08 1.24 1.31 1.35 1.46 1.49 1.47 1.44 1.46 1.47 1.42 1.38 1.31
0.98 1.06 1.17 1.26 1.41 1.54 1.68 1.71 1.65 1.69 1.71 1.71 1.69 1.63 1.49 1.37 1.34 1.30 1.23 1.15 0.99 1.05 1.17 1.25 1.32 1.39 1.44 1.46 1.44 1.44 1.42 1.36 1.30
0.98 1.06 1.17 1.22 1.30 1.44 1.63 1.68 1.68 1.66 1.69 1.76 1.79 1.67 1.57 1.44 1.43 1.43 1.37 1.30 1.22 1.07 0.96 1.07 1.20 1.30 1.36 1.44 1.46 1.46 1.41 1.35 1.27
0.86 0.99 1.12 1.23 1.32 1.40 1.54 1.73 1.61 1.67 1.64 1.71 1.83 1.73 1.64 1.60 1.53 1.48 1.42 1.40 1.36 1.32 1.25 1.00 0.97 1.06 1.18 1.24 1.33 1.39 1.41 1.39 1.33
0.79 0.90 1.03 1.17 1.30 1.44 1.60 1.69 1.81 1.69 1.66 1.72 1.76 1.73 1.75 1.71 1.68 1.58 1.52 1.50 1.47 1.37 1.31 1.34 1.21 1.01 0.96 0.99 1.11 1.22 1.26 1.32 1.34
0.75 0.85 0.96 1.06 1.18 1.37 1.56 1.71 1.80 1.77 1.80 1.77 1.70 1.72 1.77 1.77 1.77 1.76 1.70 1.62 1.52 1.50 1.45 1.35 1.29 1.28 1.23 1.06 0.98 0.99 1.09 1.16 1.23
0.71 0.82 0.93 1.01 1.15 1.21 1.50 1.55 1.66 1.77 1.87 1.81 1.64 1.64 1.80 1.89 1.91 1.90 1.86 1.72 1.64 1.64 1.61 1.49 1.38 1.31 1.28 1.24 1.19 1.14 1.05 1.03 1.05
0.57 0.70 0.85 0.95 1.03 1.18 1.18 1.34 1.47 1.52 1.70 1.75 1.72 1.72 1.79 1.97 1.98 2.01 1.98 1.93 1.82 1.80 1.79 1.68 1.63 1.46 1.35 1.24 1.20 1.28 1.24 1.21 1.15
0.56 0.60 0.70 0.87 0.96 1.00 1.09 1.22 1.32 1.38 1.40 1.58 1.72 1.77 1.82 1.88 1.95 1.95 1.95 1.96 1.99 1.94 1.84 1.82 1.72 1.63 1.61 1.48 1.34 1.23 1.26 1.29 1.30
0.56 0.53 0.57 0.72 0.82 0.94 1.02 1.13 1.21 1.30 1.36 1.43 1.64 1.77 1.77 1.82 1.86 1.91 1.92 1.95 1.94 1.93 1.92 1.82 1.75 1.68 1.59 1.59 1.58 1.53 1.40 1.30 1.31
0.59 0.58 0.55 0.62 0.75 0.86 0.99 1.04 1.09 1.17 1.33 1.49 1.43 1.45 1.67 1.66 1.74 1.77 1.81 1.87 1.87 1.88 1.91 1.84 1.75 1.65 1.57 1.54 1.59 1.59 1.58 1.54 1.45
0.59 0.59 0.58 0.62 0.67 0.73 0.81 0.95 1.01 1.09 1.25 1.34 1.33 1.34 1.33 1.45 1.52 1.62 1.68 1.78 1.90 1.91 1.85 1.78 1.74 1.65 1.59 1.60 1.61 1.58 1.63 1.61 1.61
0.56 0.59 0.61 0.64 0.66 0.71 0.75 0.85 0.89 1.00 1.08 1.22 1.30 1.24 1.29 1.29 1.29 1.38 1.61 1.68 1.80 1.93 1.96 1.86 1.73 1.70 1.78 1.74 1.65 1.61 1.75 1.78 1.72
0.57 0.57 0.63 0.67 0.67 0.71 0.73 0.73 0.75 0.88 0.98 1.00 1.04 1.15 1.15 1.26 1.28 1.26 1.47 1.63 1.67 1.96 2.02 1.96 1.89 1.88 1.91 1.89 1.84 1.90 1.84 1.85 1.90
0.60 0.63 0.64 0.69 0.72 0.72 0.68 0.69 0.71 0.74 0.81 0.91 0.87 0.94 1.03 1.17 1.15 1.22 1.25 1.51 1.57 1.55 1.82 1.94 1.84 1.75 1.77 1.80 1.79 1.86 1.88 1.91 1.97

GFSFLT1_prec_pwat_072.txt.gz
Precipitable_Water
1.28 1.42 1.49 1.43 1.31 1.25 1.28 1.29 1.32 1.36 1.29 1.31 1.36 1.40 1.31 1.26 1.22 1.26 1.32 1.44 1.48 1.52 1.45 1.46 1.59 1.61 1.57 1.67 1.68 1.65 1.61 1.54 1.49
1.23 1.37 1.47 1.50 1.39 1.32 1.31 1.34 1.33 1.34 1.29 1.29 1.37 1.38 1.34 1.29 1.23 1.22 1.26 1.40 1.48 1.56 1.52 1.50 1.69 1.72 1.63 1.59 1.69 1.65 1.55 1.54 1.50
1.03 1.28 1.43 1.49 1.50 1.34 1.37 1.40 1.40 1.40 1.37 1.29 1.34 1.39 1.34 1.28 1.22 1.21 1.21 1.36 1.42 1.45 1.50 1.60 1.62 1.64 1.64 1.61 1.65 1.65 1.60 1.47 1.51
0.95 0.97 1.21 1.41 1.53 1.55 1.47 1.46 1.46 1.44 1.43 1.40 1.41 1.45 1.45 1.36 1.29 1.22 1.22 1.19 1.34 1.43 1.44 1.54 1.58 1.56 1.57 1.63 1.64 1.66 1.65 1.57 1.46
0.93 0.99 1.08 1.31 1.50 1.61 1.53 1.39 1.44 1.47 1.49 1.46 1.46 1.53 1.49 1.44 1.36 1.29 1.20 1.14 1.18 1.32 1.38 1.49 1.49 1.51 1.46 1.47 1.54 1.65 1.59 1.53 1.52
0.92 1.02 1.08 1.22 1.43 1.57 1.60 1.54 1.52 1.54 1.55 1.52 1.55 1.54 1.55 1.54 1.45 1.34 1.25 1.20 1.13 1.16 1.22 1.31 1.40 1.44 1.43 1.45 1.48 1.53 1.55 1.53 1.48
0.93 1.04 1.10 1.17 1.27 1.40 1.64 1.71 1.64 1.70 1.66 1.64 1.67 1.60 1.55 1.51 1.51 1.46 1.37 1.30 1.25 1.16 1.10 1.16 1.22 1.29 1.36 1.42 1.45 1.47 1.48 1.46 1.46
0.84 0.95 1.05 1.14 1.22 1.31 1.49 1.66 1.80 1.82 1.79 1.76 1.72 1.69 1.62 1.49 1.49 1.54 1.53 1.44 1.36 1.32 1.26 1.09 1.11 1.18 1.23 1.31 1.34 1.34 1.34 1.36 1.35
0.77 0.85 0.98 1.08 1.21 1.27 1.34 1.53 1.70 1.81 1.83 1.81 1.82 1.73 1.68 1.69 1.63 1.51 1.52 1.52 1.47 1.41 1.35 1.30 1.15 1.00 1.07 1.11 1.22 1.27 1.29 1.31 1.27
0.69 0.77 0.88 0.97 1.09 1.22 1.31 1.41 1.60 1.74 1.80 1.85 1.76 1.76 1.77 1.77 1.72 1.65 1.51 1.53 1.51 1.47 1.41 1.41 1.36 1.26 1.07 0.96 1.03 1.11 1.16 1.20 1.23
0.58 0.66 0.75 0.85 0.99 1.12 1.23 1.35 1.49 1.70 1.90 1.87 1.78 1.76 1.75 1.78 1.76 1.70 1.69 1.59 1.53 1.52 1.52 1.45 1.42 1.41 1.38 1.30 1.17 1.06 1.02 1.05 1.10
0.56 0.58 0.65 0.76 0.87 1.04 1.16 1.23 1.35 1.49 1.80 1.79 1.82 1.75 1.77 1.83 1.79 1.77 1.73 1.67 1.64 1.68 1.61 1.53 1.48 1.47 1.43 1.37 1.34 1.35 1.31 1.20 1.03
0.62 0.58 0.57 0.64 0.75 0.88 1.00 1.12 1.25 1.32 1.43 1.71 1.82 1.79 1.77 1.87 1.88 1.89 1.85 1.82 1.80 1.80 1.79 1.64 1.59 1.54 1.50 1.44 1.37 1.39 1.36 1.38 1.36
0.58 0.59 0.58 0.59 0.64 0.72 0.84 1.01 1.14 1.14 1.32 1.41 1.60 1.76 1.83 1.83 1.93 1.97 1.99 1.98 2.01 2.00 1.95 1.92 1.80 1.66 1.62 1.52 1.46 1.43 1.43 1.39 1.35
0.51 0.54 0.57 0.60 0.56 0.59 0.74 0.91 1.01 1.03 1.13 1.38 1.50 1.49 1.66 1.82 1.83 1.87 1.93 1.91 1.95 2.04 2.06 2.00 1.86 1.74 1.66 1.63 1.58 1.53 1.48 1.48 1.43
0.45 0.48 0.54 0.60 0.59 0.58 0.61 0.75 0.93 0.94 1.04 1.21 1.33 1.36 1.38 1.44 1.62 1.64 1.78 1.82 1.84 1.88 1.98 1.92 1.83 1.80 1.71 1.65 1.68 1.67 1.64 1.61 1.60
0.45 0.46 0.50 0.55 0.56 0.58 0.59 0.65 0.77 0.93 1.00 1.06 1.11 1.16 1.31 1.33 1.36 1.49 1.54 1.59 1.79 1.77 1.87 1.87 1.86 1.79 1.75 1.74 1.69 1.67 1.76 1.70 1.69
0.48 0.48 0.50 0.53 0.52 0.55 0.60 0.70 0.71 0.79 0.89 0.91 0.94 1.03 1.12 1.27 1.30 1.34 1.41 1.44 1.48 1.66 1.82 1.97 1.91 1.90 1.90 1.74 1.66 1.67 1.82 1.81 1.67
0.55 0.53 0.52 0.51 0.52 0.53 0.60 0.72 0.72 0.75 0.80 0.82 0.83 0.87 0.98 1.09 1.27 1.28 1.30 1.34 1.29 1.42 1.71 1.87 1.99 2.03 1.99 1.92 1.83 1.86 1.82 1.86 1.88
0.70 0.65 0.62 0.63 0.61 0.61 0.62 0.72 0.74 0.75 0.77 0.79 0.75 0.78 0.87 0.93 1.14 1.13 1.15 1.26 1.21 1.18 1.34 1.76 1.85 1.98 1.97 1.96 1.87 1.89 1.88 1.98 2.03

GFSFLT1_prec_pwat_075.txt.gz
Precipitable_Water
1.20 1.44 1.46 1.43 1.33 1.31 1.33 1.35 1.39 1.45 1.46 1.42 1.46 1.46 1.42 1.41 1.39 1.35 1.37 1.46 1.48 1.60 1.61 1.55 1.62 1.63 1.68 1.76 1.70 1.67 1.64 1.57 1.55
1.27 1.33 1.40 1.46 1.47 1.35 1.37 1.35 1.38 1.43 1.47 1.49 1.47 1.43 1.48 1.43 1.40 1.36 1.30 1.40 1.48 1.56 1.62 1.61 1.57 1.65 1.66 1.65 1.70 1.67 1.62 1.52 1.53
1.24 1.40 1.52 1.53 1.53 1.49 1.43 1.44 1.43 1.47 1.50 1.47 1.49 1.51 1.49 1.51 1.45 1.43 1.35 1.38 1.37 1.47 1.56 1.62 1.59 1.64 1.68 1.69 1.67 1.68 1.63 1.54 1.48
1.10 1.29 1.48 1.60 1.61 1.50 1.55 1.55 1.51 1.47 1.47 1.49 1.52 1.51 1.49 1.47 1.46 1.43 1.44 1.35 1.33 1.45 1.53 1.60 1.56 1.67 1.65 1.61 1.64 1.66 1.64 1.62 1.55
1.15 1.23 1.34 1.48 1.69 1.61 1.48 1.54 1.53 1.54 1.54 1.54 1.55 1.57 1.56 1.48 1.54 1.50 1.43 1.38 1.31 1.33 1.43 1.55 1.53 1.57 1.63 1.58 1.64 1.70 1.66 1.61 1.58
1.03 1.14 1.22 1.33 1.43 1.63 1.69 1.56 1.58 1.55 1.62 1.56 1.57 1.60 1.53 1.54 1.53 1.55 1.49 1.46 1.39 1.29 1.28 1.40 1.53 1.52 1.51 1.51 1.47 1.53 1.60 1.59 1.61
0.91 0.99 1.08 1.16 1.29 1.38 1.62 1.73 1.59 1.59 1.58 1.61 1.62 1.54 1.51 1.45 1.50 1.52 1.52 1.54 1.52 1.44 1.31 1.23 1.33 1.40 1.44 1.47 1.48 1.48 1.51 1.55 1.51
0.78 0.88 0.97 1.04 1.14 1.27 1.45 1.64 1.65 1.72 1.72 1.72 1.71 1.61 1.55 1.49 1.52 1.55 1.63 1.53 1.51 1.53 1.50 1.39 1.25 1.25 1.31 1.40 1.43 1.44 1.43 1.42 1.42
0.67 0.74 0.82 0.92 1.05 1.16 1.28 1.41 1.58 1.70 1.75 1.78 1.81 1.78 1.66 1.66 1.67 1.62 1.54 1.55 1.52 1.49 1.48 1.50 1.47 1.36 1.22 1.17 1.28 1.33 1.30 1.33 1.30
0.59 0.64 0.72 0.83 0.92 1.04 1.17 1.28 1.42 1.50 1.76 1.90 1.89 1.86 1.85 1.80 1.77 1.72 1.64 1.58 1.55 1.50 1.44 1.46 1.44 1.42 1.42 1.31 1.16 1.14 1.22 1.26 1.27
0.54 0.56 0.61 0.69 0.80 0.92 1.03 1.18 1.32 1.39 1.58 1.76 1.88 1.92 1.86 1.89 1.86 1.83 1.88 1.80 1.68 1.60 1.53 1.49 1.45 1.42 1.43 1.38 1.35 1.28 1.11 1.08 1.15
0.63 0.62 0.59 0.62 0.70 0.76 0.89 1.00 1.15 1.27 1.32 1.53 1.66 1.82 1.90 1.89 1.90 1.89 1.90 1.86 1.80 1.77 1.62 1.54 1.50 1.50 1.47 1.43 1.39 1.39 1.36 1.34 1.25
0.59 0.62 0.63 0.61 0.64 0.70 0.71 0.81 0.99 1.11 1.18 1.26 1.40 1.60 1.75 1.85 1.91 1.92 1.91 1.92 1.93 1.95 1.85 1.68 1.63 1.56 1.55 1.50 1.43 1.47 1.44 1.43 1.41
0.50 0.54 0.59 0.62 0.62 0.64 0.69 0.74 0.80 0.87 1.03 1.14 1.26 1.41 1.56 1.72 1.85 1.92 1.94 1.96 2.01 2.02 1.97 1.89 1.76 1.68 1.70 1.67 1.59 1.55 1.52 1.48 1.43
0.43 0.44 0.48 0.55 0.58 0.58 0.63 0.66 0.72 0.75 0.81 1.03 1.17 1.25 1.34 1.50 1.67 1.79 1.87 1.93 2.00 2.03 2.05 1.98 1.91 1.84 1.81 1.84 1.80 1.75 1.66 1.56 1.44
0.43 0.44 0.44 0.48 0.50 0.55 0.60 0.62 0.65 0.68 0.79 0.89 0.97 1.08 1.13 1.25 1.45 1.55 1.69 1.73 1.83 1.91 1.94 1.92 1.91 1.92 1.88 1.91 2.00 1.90 1.81 1.70 1.64
0.44 0.45 0.45 0.47 0.48 0.47 0.47 0.59 0.63 0.64 0.75 0.85 0.84 0.91 1.06 1.13 1.19 1.35 1.47 1.59 1.64 1.64 1.78 1.80 1.80 1.84 1.93 1.97 1.97 1.95 1.97 1.90 1.82
0.54 0.57 0.55 0.53 0.50 0.50 0.50 0.52 0.56 0.65 0.70 0.80 0.75 0.79 0.88 0.97 1.10 1.18 1.28 1.38 1.41 1.51 1.58 1.68 1.75 1.86 1.99 1.95 1.87 1.94 2.09 2.04 1.96
0.59 0.61 0.65 0.65 0.62 0.59 0.60 0.61 0.61 0.62 0.74 0.78 0.72 0.71 0.74 0.81 0.87 0.99 1.16 1.19 1.24 1.36 1.38 1.40 1.53 1.71 1.86 1.93 2.02 2.07 2.10 2.07 2.03
0.56 0.61 0.66 0.67 0.67 0.65 0.63 0.61 0.65 0.70 0.72 0.75 0.74 0.70 0.72 0.75 0.77 0.82 0.89 1.02 1.11 1.14 1.22 1.33 1.38 1.44 1.60 1.83 1.89 2.03 2.02 2.13 2.01

GFSFLT1_prec_pwat_078.txt.gz
Precipitable_Water
1.12 1.50 1.67 1.61 1.49 1.54 1.48 1.39 1.40 1.40 1.42 1.48 1.53 1.54 1.53 1.55 1.51 1.43 1.50 1.60 1.60 1.62 1.72 1.78 1.69 1.66 1.69 1.74 1.70 1.64 1.67 1.60 1.51
1.15 1.39 1.60 1.60 1.54 1.50 1.51 1.46 1.41 1.39 1.43 1.47 1.53 1.52 1.55 1.57 1.56 1.48 1.42 1.51 1.63 1.65 1.73 1.75 1.71 1.71 1.71 1.70 1.71 1.69 1.70 1.56 1.55
1.22 1.42 1.54 1.55 1.60 1.55 1.51 1.47 1.49 1.50 1.51 1.51 1.55 1.60 1.61 1.57 1.57 1.56 1.53 1.47 1.46 1.55 1.67 1.74 1.72 1.67 1.73 1.75 1.69 1.71 1.66 1.57 1.55
1.22 1.45 1.56 1.66 1.64 1.67 1.57 1.59 1.57 1.54 1.57 1.56 1.58 1.61 1.63 1.63 1.60 1.60 1.59 1.52 1.45 1.46 1.56 1.65 1.71 1.73 1.74 1.83 1.71 1.65 1.66 1.58 1.56
1.20 1.41 1.52 1.58 1.81 1.82 1.67 1.61 1.63 1.61 1.60 1.59 1.62 1.63 1.65 1.65 1.67 1.66 1.60 1.55 1.51 1.51 1.47 1.60 1.68 1.74 1.73 1.79 1.82 1.69 1.67 1.60 1.59
1.17 1.25 1.39 1.49 1.69 1.79 1.77 1.65 1.66 1.67 1.68 1.63 1.65 1.66 1.62 1.67 1.64 1.61 1.59 1.57 1.60 1.57 1.51 1.45 1.53 1.64 1.65 1.68 1.71 1.74 1.65 1.67 1.66
1.06 1.16 1.27 1.35 1.47 1.53 1.71 1.82 1.73 1.64 1.71 1.71 1.67 1.62 1.59 1.56 1.65 1.54 1.60 1.57 1.58 1.62 1.59 1.51 1.39 1.44 1.56 1.61 1.70 1.65 1.63 1.56 1.60
0.81 0.92 1.02 1.13 1.26 1.37 1.43 1.58 1.75 1.81 1.79 1.75 1.80 1.74 1.66 1.56 1.61 1.60 1.65 1.56 1.67 1.59 1.63 1.58 1.54 1.43 1.37 1.44 1.53 1.57 1.59 1.55 1.52
0.66 0.70 0.77 0.90 0.98 1.11 1.23 1.36 1.48 1.67 1.79 1.81 1.73 1.74 1.74 1.79 1.70 1.67 1.61 1.59 1.53 1.74 1.57 1.59 1.58 1.51 1.43 1.35 1.28 1.36 1.44 1.48 1.54
0.59 0.62 0.68 0.72 0.80 0.88 0.98 1.10 1.26 1.43 1.61 1.84 1.82 1.85 1.87 1.81 1.81 1.81 1.75 1.75 1.66 1.57 1.53 1.62 1.53 1.51 1.50 1.41 1.35 1.27 1.18 1.27 1.34
0.60 0.62 0.63 0.66 0.71 0.78 0.85 0.94 1.04 1.23 1.37 1.59 1.75 1.79 1.85 1.91 1.92 1.88 1.93 1.86 1.79 1.71 1.65 1.56 1.55 1.52 1.51 1.46 1.42 1.35 1.28 1.21 1.16
0.61 0.61 0.62 0.65 0.67 0.70 0.78 0.85 0.89 1.01 1.15 1.27 1.44 1.62 1.73 1.83 1.91 1.90 1.88 1.96 1.91 1.90 1.80 1.74 1.68 1.62 1.55 1.52 1.47 1.43 1.35 1.32 1.29
0.58 0.59 0.60 0.60 0.63 0.65 0.68 0.72 0.79 0.84 0.91 1.06 1.18 1.30 1.55 1.71 1.80 1.86 1.85 1.94 2.05 2.10 2.05 1.95 1.89 1.77 1.71 1.58 1.51 1.56 1.50 1.45 1.39
0.51 0.53 0.54 0.56 0.58 0.59 0.64 0.67 0.68 0.70 0.81 0.88 1.04 1.16 1.24 1.41 1.60 1.72 1.85 1.95 1.99 2.08 2.11 2.05 1.99 1.92 1.89 1.70 1.61 1.59 1.59 1.57 1.52
0.46 0.45 0.47 0.48 0.47 0.48 0.57 0.64 0.64 0.63 0.67 0.80 0.93 1.00 1.06 1.15 1.30 1.50 1.68 1.81 1.91 2.02 1.98 1.97 2.02 2.03 2.03 2.02 1.85 1.77 1.71 1.68 1.63
0.44 0.46 0.48 0.49 0.47 0.47 0.50 0.54 0.58 0.60 0.64 0.72 0.77 0.86 0.91 0.98 1.08 1.19 1.36 1.50 1.62 1.69 1.83 1.87 1.86 1.88 1.95 2.00 2.01 1.93 1.88 1.86 1.84
0.49 0.52 0.52 0.55 0.54 0.51 0.50 0.54 0.57 0.58 0.60 0.67 0.70 0.75 0.81 0.85 0.88 0.96 1.09 1.20 1.33 1.44 1.50 1.57 1.64 1.79 1.88 1.98 2.06 2.09 2.06 2.10 2.04
0.47 0.50 0.53 0.55 0.57 0.57 0.56 0.58 0.56 0.60 0.65 0.67 0.61 0.69 0.75 0.75 0.79 0.86 0.92 1.02 1.12 1.24 1.30 1.42 1.49 1.63 1.73 1.77 1.89 2.10 2.23 2.22 2.20
0.45 0.46 0.51 0.53 0.54 0.57 0.59 0.61 0.62 0.64 0.62 0.65 0.68 0.64 0.63 0.70 0.71 0.75 0.84 0.89 0.95 1.05 1.17 1.25 1.32 1.46 1.52 1.67 1.65 1.81 1.95 2.07 2.17
0.46 0.46 0.47 0.48 0.50 0.53 0.55 0.57 0.61 0.66 0.68 0.65 0.61 0.62 0.62 0.60 0.68 0.70 0.69 0.77 0.81 0.84 0.96 1.11 1.20 1.24 1.33 1.46 1.49 1.58 1.68 1.89 1.98

GFSFLT1_prec_pwat_084.txt.gz
Precipitable_Water
1.59 1.54 1.57 1.65 1.60 1.74 1.62 1.42 1.32 1.20 1.28 1.28 1.33 1.39 1.36 1.39 1.32 1.42 1.55 1.73 1.75 1.68 1.93 2.07 2.02 1.91 1.68 1.70 1.69 1.61 1.60 1.57 1.36
1.60 1.77 1.77 1.94 1.78 1.68 1.65 1.54 1.44 1.32 1.28 1.36 1.48 1.49 1.50 1.54 1.47 1.39 1.27 1.38 1.55 1.64 1.79 1.95 2.11 2.11 1.72 1.58 1.70 1.71 1.76 1.55 1.61
1.36 1.54 1.87 1.79 1.98 1.94 1.69 1.69 1.61 1.54 1.34 1.41 1.46 1.53 1.53 1.53 1.53 1.49 1.49 1.53 1.51 1.64 1.90 1.88 1.97 2.24 1.80 1.60 1.71 1.71 1.66 1.63 1.61
1.17 1.35 1.58 1.72 2.03 2.17 1.85 1.83 1.85 1.90 1.51 1.37 1.50 1.54 1.57 1.57 1.59 1.62 1.59 1.51 1.44 1.43 1.62 1.82 1.84 1.56 1.78 1.63 1.71 1.72 1.65 1.60 1.75
1.19 1.30 1.44 1.55 1.70 1.77 2.05 2.09 1.97 1.88 1.85 1.50 1.52 1.59 1.59 1.57 1.63 1.66 1.65 1.58 1.57 1.53 1.41 1.42 1.55 1.71 1.70 1.72 1.83 1.77 1.85 1.57 1.50
1.10 1.17 1.30 1.43 1.57 1.66 1.86 1.82 1.89 1.92 2.21 2.02 1.73 1.73 1.67 1.67 1.61 1.63 1.63 1.64 1.67 1.68 1.59 1.53 1.45 1.41 1.55 1.65 1.75 1.64 1.79 1.79 1.60
1.05 1.17 1.22 1.38 1.54 1.71 1.82 1.86 1.91 2.12 1.93 1.78 1.88 2.05 2.06 1.84 1.78 1.67 1.66 1.72 1.79 1.71 1.71 1.63 1.57 1.51 1.49 1.54 1.61 1.62 1.61 1.69 1.70
0.93 1.05 1.13 1.22 1.22 1.36 1.46 1.53 1.68 1.93 1.95 1.91 2.11 2.05 1.97 1.88 2.07 1.86 1.78 1.78 1.75 1.77 1.75 1.69 1.68 1.61 1.55 1.57 1.55 1.55 1.47 1.52 1.57
0.80 0.88 1.03 1.10 1.17 1.27 1.34 1.40 1.45 1.80 1.93 1.92 1.95 1.86 1.96 1.98 2.12 2.03 1.81 1.81 1.84 1.86 1.74 1.81 1.76 1.67 1.61 1.55 1.50 1.50 1.49 1.51 1.47
0.72 0.75 0.79 0.85 0.93 1.02 1.14 1.27 1.50 1.65 1.64 1.71 1.77 1.85 1.84 1.93 1.97 1.99 1.97 1.90 1.91 1.88 1.82 1.75 1.70 1.75 1.79 1.74 1.69 1.60 1.49 1.45 1.47
0.72 0.73 0.74 0.76 0.81 0.88 0.91 1.00 1.13 1.29 1.55 1.72 1.71 1.71 1.71 1.80 1.86 1.92 1.92 1.92 1.91 1.90 1.90 1.81 1.79 1.70 1.73 1.76 1.76 1.80 1.72 1.59 1.53
0.71 0.71 0.72 0.73 0.77 0.83 0.88 0.88 0.93 1.05 1.17 1.27 1.33 1.45 1.59 1.68 1.73 1.76 1.86 1.86 1.81 1.86 1.87 1.85 1.84 1.85 1.82 1.78 1.78 1.83 1.77 1.79 1.70
0.65 0.66 0.66 0.64 0.68 0.72 0.76 0.78 0.82 0.82 0.87 0.99 1.04 1.10 1.19 1.27 1.33 1.46 1.58 1.73 1.82 1.89 1.90 1.87 1.92 1.93 2.04 2.00 1.95 2.01 1.88 1.86 1.81
0.65 0.63 0.63 0.63 0.64 0.64 0.66 0.69 0.70 0.69 0.73 0.75 0.82 0.85 0.92 1.00 1.09 1.08 1.17 1.29 1.51 1.71 1.83 1.86 1.90 1.93 2.03 2.09 2.13 2.11 2.09 1.99 1.97
0.65 0.64 0.64 0.62 0.59 0.59 0.62 0.65 0.63 0.61 0.63 0.71 0.73 0.75 0.75 0.77 0.84 0.94 0.96 0.96 1.03 1.12 1.41 1.62 1.74 1.77 1.81 1.97 2.03 2.15 2.17 2.13 2.11
0.63 0.62 0.60 0.57 0.57 0.60 0.63 0.61 0.58 0.52 0.56 0.59 0.58 0.56 0.59 0.68 0.70 0.71 0.82 0.85 0.80 0.89 1.02 1.12 1.41 1.62 1.70 1.74 1.84 1.85 2.00 2.10 2.11
0.57 0.60 0.57 0.56 0.55 0.54 0.55 0.57 0.57 0.56 0.57 0.59 0.56 0.54 0.54 0.54 0.56 0.60 0.64 0.69 0.74 0.78 0.80 0.88 1.02 1.08 1.20 1.41 1.49 1.63 1.80 1.81 1.92
0.59 0.60 0.58 0.56 0.53 0.53 0.53 0.54 0.53 0.55 0.57 0.58 0.54 0.53 0.54 0.56 0.56 0.58 0.61 0.63 0.66 0.68 0.71 0.74 0.75 0.83 0.87 0.89 1.01 1.21 1.37 1.51 1.61
0.51 0.52 0.53 0.54 0.54 0.53 0.51 0.51 0.51 0.51 0.52 0.51 0.48 0.47 0.49 0.51 0.53 0.55 0.55 0.56 0.54 0.61 0.60 0.63 0.68 0.70 0.76 0.84 0.89 0.97 1.08 1.22 1.30
0.45 0.48 0.46 0.45 0.45 0.47 0.48 0.48 0.46 0.47 0.48 0.49 0.46 0.43 0.43 0.44 0.46 0.48 0.50 0.53 0.53 0.49 0.55 0.58 0.56 0.57 0.64 0.71 0.80 0.89 0.92 0.94 1.05

GFSFLT1_prec_pwat_087.txt.gz
Precipitable_Water
1.53 1.61 1.66 1.74 1.76 1.86 1.63 1.51 1.41 1.41 1.18 1.04 1.11 1.23 1.29 1.54 1.60 1.77 1.76 1.78 1.78 1.82 1.72 1.74 1.76 1.78 1.72 1.67 1.53 1.53 1.59 1.44 1.27
1.34 1.44 1.58 1.72 1.68 1.76 1.81 1.70 1.54 1.50 1.26 1.09 1.16 1.19 1.25 1.42 1.48 1.56 1.57 1.72 1.74 1.75 1.81 1.88 1.99 2.05 1.73 1.60 1.69 1.60 1.57 1.50 1.46
1.32 1.49 1.60 1.63 1.72 1.84 2.10 1.81 1.75 1.67 1.52 1.18 1.20 1.35 1.35 1.36 1.40 1.36 1.42 1.62 1.58 1.61 1.64 1.67 1.97 2.00 1.69 1.53 1.60 1.62 1.60 1.59 1.56
1.38 1.47 1.65 1.70 1.76 1.85 2.07 2.16 1.88 1.78 1.74 1.46 1.29 1.44 1.51 1.47 1.44 1.49 1.47 1.43 1.55 1.62 1.63 1.72 1.73 1.83 1.83 1.64 1.65 1.59 1.60 1.57 1.66
1.43 1.43 1.47 1.72 1.93 1.95 2.00 2.01 2.16 1.99 2.06 1.79 1.77 1.54 1.48 1.50 1.57 1.58 1.52 1.48 1.47 1.54 1.50 1.55 1.55 1.57 1.49 1.71 1.66 1.72 1.73 1.61 1.56
1.30 1.34 1.44 1.55 1.62 1.72 1.81 1.77 1.95 2.01 2.13 2.03 1.93 1.86 1.75 1.65 1.63 1.61 1.58 1.60 1.58 1.53 1.52 1.50 1.49 1.48 1.51 1.50 1.56 1.71 1.71 1.79 1.72
1.21 1.30 1.31 1.31 1.39 1.49 1.63 1.79 1.91 1.94 2.06 2.00 2.12 1.96 1.87 1.84 1.84 1.85 1.80 1.76 1.78 1.72 1.66 1.58 1.54 1.48 1.43 1.48 1.51 1.61 1.61 1.62 1.63
1.08 1.11 1.16 1.28 1.40 1.42 1.51 1.57 1.75 1.84 1.97 1.97 1.96 2.04 1.89 1.75 1.86 2.03 2.01 1.97 1.86 1.92 1.90 1.82 1.71 1.62 1.56 1.56 1.54 1.52 1.50 1.50 1.53
1.02 1.03 1.09 1.15 1.24 1.30 1.37 1.44 1.63 1.74 1.84 1.82 2.03 2.04 2.01 1.93 1.77 1.83 2.15 2.09 1.95 1.87 1.92 1.92 1.91 1.81 1.69 1.58 1.55 1.61 1.58 1.55 1.51
0.96 0.99 1.02 1.06 1.11 1.13 1.17 1.27 1.43 1.48 1.58 1.78 1.89 1.94 1.98 2.05 2.11 2.15 2.03 2.07 2.00 1.86 1.88 1.94 1.86 1.89 1.89 1.83 1.78 1.79 1.69 1.69 1.59
0.88 0.90 0.92 0.93 0.92 0.97 1.03 1.10 1.19 1.37 1.42 1.49 1.63 1.68 1.74 1.84 1.83 1.91 1.98 1.98 1.99 1.95 1.94 1.96 1.91 1.88 1.87 1.82 1.86 1.93 1.90 1.91 1.78
0.87 0.84 0.84 0.88 0.91 0.89 0.89 0.92 0.99 1.04 1.14 1.25 1.31 1.53 1.60 1.61 1.61 1.66 1.73 1.79 1.90 1.93 1.87 1.86 1.89 1.92 1.87 1.85 1.84 1.88 1.90 1.91 1.89
0.83 0.85 0.82 0.80 0.83 0.82 0.81 0.84 0.90 0.90 0.94 0.98 1.00 1.07 1.27 1.43 1.48 1.45 1.48 1.57 1.64 1.77 1.85 1.84 1.83 1.80 1.83 1.85 1.90 1.96 1.97 1.96 1.95
0.80 0.74 0.72 0.73 0.73 0.70 0.72 0.74 0.76 0.73 0.75 0.74 0.81 0.85 0.90 0.99 1.06 1.07 1.13 1.14 1.17 1.20 1.36 1.62 1.75 1.80 1.82 1.87 1.99 1.96 2.03 2.12 2.06
0.70 0.70 0.67 0.68 0.66 0.66 0.68 0.69 0.67 0.64 0.63 0.71 0.70 0.68 0.68 0.73 0.78 0.82 0.85 0.87 0.92 0.90 1.00 1.09 1.21 1.49 1.77 1.95 1.94 1.94 1.92 1.94 1.93
0.69 0.70 0.72 0.74 0.71 0.68 0.64 0.63 0.59 0.53 0.55 0.57 0.56 0.54 0.52 0.51 0.54 0.61 0.67 0.71 0.74 0.75 0.83 0.84 0.96 1.08 1.15 1.35 1.58 1.70 1.76 1.77 1.77
0.65 0.66 0.65 0.62 0.56 0.53 0.52 0.55 0.53 0.53 0.53 0.53 0.51 0.47 0.48 0.51 0.51 0.49 0.53 0.58 0.62 0.64 0.67 0.70 0.71 0.76 0.85 0.93 0.97 1.05 1.16 1.27 1.36
0.59 0.58 0.58 0.57 0.53 0.53 0.51 0.52 0.51 0.51 0.50 0.50 0.46 0.46 0.47 0.48 0.50 0.50 0.52 0.57 0.57 0.57 0.62 0.61 0.57 0.60 0.63 0.64 0.68 0.76 0.85 0.90 0.98
0.59 0.56 0.55 0.52 0.52 0.51 0.49 0.50 0.47 0.47 0.47 0.45 0.42 0.40 0.40 0.41 0.42 0.45 0.47 0.48 0.48 0.59 0.61 0.62 0.63 0.63 0.60 0.56 0.60 0.65 0.73 0.79 0.83
0.52 0.52 0.51 0.50 0.48 0.47 0.46 0.45 0.43 0.44 0.46 0.43 0.40 0.38 0.39 0.39 0.39 0.37 0.36 0.36 0.35 0.32 0.37 0.46 0.50 0.55 0.61 0.63 0.62 0.60 0.57 0.57 0.62